Notices

What's New in latest Release from April 7th, 2021:

- Updated Glossary, including Speed of Maximum Gust, and Total Hourly Precipitation

- Updated national and regional climate services offices contacts and prices information

- Addition of station inventory lists for 1981-2010, 1971-2000, and 1961-1990 Normals.

If you haven't already, please take our survey and provide feedback about our website: https://eccc.sondage-survey.ca/f/LanguageSelection.aspx?s=442ca660-fcf1-47c0-95a9-59707d6fd709

Hourly Data Report for December 17, 2018

CARBERRY CS
MANITOBA
Current Station Operator: ECCC - MSC

49°54'20.900" N
99°21'26.800" W
383.50 m
5010547
71170
WZE

Download Data

Hourly Data (December 2018)
Hourly Data Report for December 17, 2018
TIME
LST
Temp Definition
°C
Dew Point Definition
°C
Rel Hum Definition
%
Precip. Amount Definition
mm

Wind Dir Definition
10's deg

Wind Spd Definition
km/h
Visibility Definition
km
Stn Press Definition
kPa
Hmdx Definition


Wind Chill Definition


Weather Definition


00:00 -12.8 -14.8 85 0.0 19 8   97.88   -18 LegendNANA
01:00 -14.2 -16.5 83 0.0 11 6   97.85   -18 LegendNANA
02:00 -15.2 -17.1 86 0.0 10 5   97.84   -19 LegendNANA
03:00 -15.7 -17.0 90 0.0 11 5   97.84   -19 LegendNANA
04:00 -16.4 -18.0 88 0.0 13 3   97.79   -19 LegendNANA
05:00 -17.6 -19.5 85 0.0 9 6   97.66   -22 LegendNANA
06:00 -14.9 -16.4 89 0.0 11 11   97.63   -21 LegendNANA
07:00 -14.1 -16.2 85 0.0 12 6   97.65   -18 LegendNANA
08:00 -14.4 -16.7 83 0.0 9 11   97.55   -21 LegendNANA
09:00 -14.0 -16.4 82 0.0 11 7   97.54   -19 LegendNANA
10:00 -11.5 -15.0 75 0.0 13 14   97.49   -18 LegendNANA
11:00 -10.4 -14.3 73 0.0 12 13   97.45   -17 LegendNANA
12:00 -7.8 -13.1 66 0.0 13 16   97.30   -14 LegendNANA
13:00 -5.2 -11.4 62 0.0 15 16   97.23   -11 LegendNANA
14:00 -4.9 -11.3 61 0.0 15 22   97.08   -12 LegendNANA
15:00 -5.4 -11.3 63 0.0 15 20   96.99   -12 LegendNANA
16:00 -5.1 -11.4 62 0.0 14 24   96.90   -12 LegendNANA
17:00 -5.5 -11.0 65 0.0 15 20   96.82   -12 LegendNANA
18:00 -5.8 -10.9 67 0.0 15 20   96.70   -13 LegendNANA
19:00 -6.8 -11.1 71 0.0 18 13   96.66   -12 LegendNANA
20:00 -6.8 -10.9 73 0.0 15 14   96.60   -13 LegendNANA
21:00 -6.7 -10.1 77 0.0 16 16   96.53   -13 LegendNANA
22:00 -5.1 -8.2 79 0.0 17 22   96.44   -12 LegendNANA
23:00 -4.5 -7.4 80 0.0 18 23   96.32   -11 LegendNANA

Notes on Data Quality.

Legend

  • E = Estimated
  • M = Missing
  • NA = Not Available*
  • [empty] = Indicates an unobserved value
Date modified: